Weather in Sanino

Russia / Vladimir Oblast     55°59′50″N   38°55′57″E
temp.,
°C
wind,
m/s
gust,
m/s
humid.,
%
clouds,
%
prec.,
mm/h
press.,
hPa
HPBL,
m
19 january, wed
wed1900:00−11nw4129378 0.0 1015349
03:00−16nw289856 0.0 1016122
06:00−18wnw229965 0.0 101711
09:00−21wnw2110096 0.0 101810
12:00−12wsw12925 0.0 1017118
15:00−10ssw259412 0.0 1016156
18:00−14ssw28965 0.0 1015129
21:00−12ssw31191100 0.0 1013221
20 january, thu
thu2000:00−11ssw4119586 0.0 1012282
03:00−9ssw41295100 0.1 1010336
06:00−7s41295100 0.1 1008408
09:00−6s51394100 0.3 1007446
12:00−5s51394100 0.1 1007471
15:00−5s51494100 0.3 1005560
18:00−5s61493100 0.1 1004596
21:00−7s51593100 0.3 1004608
21 january, fri
fri2100:00−7s51494100 0.4 1003581
03:00−7sse51395100 1.5 1003552
06:00−7sse41195100 1.0 1003502
09:00−7sse41095100 2.3 1003487
12:00−6se41095100 1.3 1003544
15:00−6se41095100 2.6 1002658
18:00−7se51294100 0.6 1001590
21:00−8ese41194100 0.9 1002438
22 january, sat
sat2200:00−7ese41095100 0.8 1002485
03:00−6se3896100 2.3 1003382
06:00−11se389883 0.1 1006153
09:00−10ese399598 0.2 1009311
12:00−9ese3895100 0.1 1012328
15:00−8ese3794100 0.1 1013383
18:00−9ese399691 0.1 1016249
21:00−12ene2598100 0.1 101978
23 january, sun
sun2300:00−16ene2210083 0.0 102123
03:00−16ene249994 0.1 102467
06:00−20ne2210076 0.0 102511
09:00−19nne1110082 0.1 102833
12:00−11nne119496 0.1 1029145
15:00−9n129593 0.1 1030211
18:00−17nne2110077 0.0 103210
21:00−21n2110085 0.0 103410